EW4799 Weather Reports


time (UTC)temp
C
wind
direction
speed
KPH
gust
KPH
rain 1hr
cm
rain 24hr
cm
rain mn
cm
humidity
%
barometer
mb
20260503221554 30 153 0.0 8.0 0.00 0.00 0.00 36 1011.5
20260503220054 30 37 1.6 6.4 0.00 0.00 0.00 35 1011.5
20260503214601 29 169 0.0 6.4 0.00 0.00 0.00 35 1011.7
20260503213058 28 194 1.6 8.0 0.00 0.00 0.00 36 1011.8
20260503211554 29 108 0.0 6.4 0.00 0.00 0.00 37 1011.9
20260503210054 28 171 0.0 4.8 0.00 0.00 0.00 37 1012.1
20260503204558 27 0 0.0 6.4 0.00 0.00 0.00 40 1012.3
20260503203059 27 39 0.0 3.2 0.00 0.00 0.00 38 1012.6
20260503201558 26 0 1.6 4.8 0.00 0.00 0.00 41 1012.8
20260503200053 25 0 1.6 6.4 0.00 0.00 0.00 43 1012.9
20260503194554 24 139 1.6 4.8 0.00 0.00 0.00 44 1013.2
20260503193111 23 0 0.0 6.4 0.00 0.00 0.00 45 1013.4
20260503191558 23 37 3.2 6.4 0.00 0.00 0.00 46 1013.6
20260503190111 23 163 0.0 8.0 0.00 0.00 0.00 50 1013.8
20260503184556 22 0 0.0 1.6 0.00 0.00 0.00 53 1013.9
20260503183114 21 0 0.0 3.2 0.00 0.00 0.00 54 1014.0
20260503181559 21 0 0.0 3.2 0.00 0.00 0.00 58 1014.1
20260503180100 20 33 1.6 8.0 0.00 0.00 0.00 58 1014.1
20260503174556 20 37 0.0 6.4 0.00 0.00 0.00 62 1014.2
20260503173112 19 0 0.0 6.4 0.00 0.00 0.00 65 1014.4
20260503171554 18 36 0.0 6.4 0.00 0.00 0.00 65 1014.3
20260503150106 12 0 0.0 1.6 0.00 0.00 0.00 83 1014.9
20260503140113 11 0 0.0 0.0 0.00 0.00 0.00 85 1014.7
20260503100107 11 0 0.0 0.0 0.00 0.00 0.00 84 1014.9
20260503081606 12 0 0.0 0.0 0.00 0.00 0.00 79 1015.1
20260503071606 13 0 0.0 0.0 0.00 0.00 0.00 75 1015.1
20260503054552 15 0 0.0 0.0 0.00 0.00 0.00 72 1014.7
20260503053057 15 0 0.0 1.6 0.00 0.00 0.00 70 1014.7
20260503051600 15 0 0.0 0.0 0.00 0.00 0.00 70 1014.6
20260503050055 16 0 0.0 0.0 0.00 0.00 0.00 69 1014.7
20260503044552 16 0 0.0 0.0 0.00 0.00 0.00 67 1014.6
20260503043054 16 0 0.0 0.0 0.00 0.00 0.00 68 1014.6
20260503041548 17 0 0.0 0.0 0.00 0.00 0.00 66 1014.5
20260503040052 17 0 0.0 0.0 0.00 0.00 0.00 64 1014.5
20260503034551 18 0 0.0 0.0 0.00 0.00 0.00 66 1014.1
20260503033052 19 0 0.0 0.0 0.00 0.00 0.00 62 1013.9
20260503031552 20 0 0.0 1.6 0.00 0.00 0.00 57 1013.7
20260503030056 21 0 0.0 3.2 0.00 0.00 0.00 56 1013.7
20260503024602 22 0 0.0 12.9 0.00 0.00 0.00 53 1013.4
20260503023057 22 0 1.6 6.4 0.00 0.00 0.00 50 1013.3
20260503021559 23 0 0.0 8.0 0.00 0.00 0.00 47 1013.4
20260503020057 25 44 1.6 4.8 0.00 0.00 0.00 43 1013.3
20260503014621 26 39 0.0 4.8 0.00 0.00 0.00 45 1013.4
20260503013053 26 82 0.0 6.4 0.00 0.00 0.00 44 1013.3
20260503011609 26 0 0.0 8.0 0.00 0.00 0.00 43 1013.4
20260503010058 27 0 1.6 8.0 0.00 0.00 0.00 41 1013.3
20260503004559 27 32 0.0 3.2 0.00 0.00 0.00 41 1013.4
20260503003055 26 41 1.6 8.0 0.00 0.00 0.00 41 1013.4
20260503001554 27 117 0.0 4.8 0.00 0.00 0.00 41 1013.5
20260503000052 27 0 1.6 8.0 0.00 0.00 0.00 42 1013.6
20260502234552 27 44 1.6 6.4 0.00 0.00 0.00 40 1013.8
20260502233054 26 0 0.0 6.4 0.00 0.00 0.00 43 1013.9
20260502231553 27 36 1.6 3.2 0.00 0.00 0.00 41 1014.2
20260502230056 26 28 1.6 8.0 0.00 0.00 0.00 42 1014.3
20260502224604 26 40 1.6 9.7 0.00 0.00 0.00 43 1014.6
20260502223054 26 165 0.0 8.0 0.00 0.00 0.00 45 1014.6